Time,TemperatureF,DewpointF,PressureIn,WindDirection,WindDirectionDegrees,WindSpeedMPH,WindSpeedGustMPH,Humidity,HourlyPrecipIn,Conditions,Clouds,dailyrainin,SoftwareType,DateUTC
2013-09-17 00:00:00,42.9,37.2,30.26,North,355,0.0,0.0,80,0.00,,,0.00,Wunderground v.1.15,2013-09-17 04:00:00,
2013-09-17 00:02:00,42.8,37.1,30.26,North,357,0.0,0.0,80,0.00,,,0.00,Wunderground v.1.15,2013-09-17 04:02:00,
2013-09-17 00:05:00,42.8,37.1,30.26,North,357,0.0,0.0,80,0.00,,,0.00,Wunderground v.1.15,2013-09-17 04:05:00,
2013-09-17 00:08:00,42.6,36.9,30.26,North,357,0.0,0.0,80,0.00,,,0.00,Wunderground v.1.15,2013-09-17 04:08:00,
2013-09-17 00:13:00,42.3,36.9,30.26,North,357,0.0,0.0,81,0.00,,,0.00,Wunderground v.1.15,2013-09-17 04:13:00,
2013-09-17 00:17:00,42.3,36.9,30.27,North,357,0.0,0.0,81,0.00,,,0.00,Wunderground v.1.15,2013-09-17 04:17:00,
2013-09-17 00:20:00,42.2,36.8,30.27,North,355,0.0,0.0,81,0.00,,,0.00,Wunderground v.1.15,2013-09-17 04:20:00,
2013-09-17 00:26:00,41.9,36.8,30.27,North,357,0.0,0.0,82,0.00,,,0.00,Wunderground v.1.15,2013-09-17 04:26:00,
2013-09-17 00:32:00,41.8,36.7,30.27,North,357,0.0,0.0,82,0.00,,,0.00,Wunderground v.1.15,2013-09-17 04:32:00,
2013-09-17 00:38:00,41.5,36.4,30.27,North,355,0.0,0.0,82,0.00,,,0.00,Wunderground v.1.15,2013-09-17 04:38:00,
2013-09-17 00:45:00,41.3,36.2,30.28,North,355,0.0,0.0,82,0.00,,,0.00,Wunderground v.1.15,2013-09-17 04:45:00,
2013-09-17 00:50:00,41.2,36.4,30.28,North,357,0.0,0.0,83,0.00,,,0.00,Wunderground v.1.15,2013-09-17 04:50:00,
2013-09-17 00:55:00,41.1,36.6,30.28,North,357,0.0,0.0,84,0.00,,,0.00,Wunderground v.1.15,2013-09-17 04:55:00,
2013-09-17 01:01:00,40.8,36.3,30.29,North,357,0.0,0.0,84,0.00,,,0.00,Wunderground v.1.15,2013-09-17 05:01:00,
2013-09-17 01:07:00,40.6,36.1,30.29,North,355,0.0,0.0,84,0.00,,,0.00,Wunderground v.1.15,2013-09-17 05:07:00,
2013-09-17 01:13:00,40.5,36.0,30.29,North,357,0.0,0.0,84,0.00,,,0.00,Wunderground v.1.15,2013-09-17 05:13:00,
2013-09-17 01:20:00,40.3,35.8,30.29,North,355,0.0,0.0,84,0.00,,,0.00,Wunderground v.1.15,2013-09-17 05:20:00,
2013-09-17 01:25:00,40.1,35.7,30.29,North,357,0.0,0.0,84,0.00,,,0.00,Wunderground v.1.15,2013-09-17 05:25:00,
2013-09-17 01:32:00,39.9,35.5,30.30,North,357,0.0,0.0,84,0.00,,,0.00,Wunderground v.1.15,2013-09-17 05:32:00,
2013-09-17 01:37:00,39.8,35.4,30.30,North,357,0.0,0.0,84,0.00,,,0.00,Wunderground v.1.15,2013-09-17 05:37:00,
2013-09-17 01:42:00,39.6,35.5,30.30,North,357,0.0,0.0,85,0.00,,,0.00,Wunderground v.1.15,2013-09-17 05:42:00,
2013-09-17 01:48:00,39.5,35.4,30.30,North,357,0.0,0.0,85,0.00,,,0.00,Wunderground v.1.15,2013-09-17 05:48:00,
2013-09-17 01:55:00,39.2,35.1,30.30,North,357,0.0,0.0,85,0.00,,,0.00,Wunderground v.1.15,2013-09-17 05:55:00,
2013-09-17 02:00:00,39.2,35.1,30.30,North,357,0.0,0.0,85,0.00,,,0.00,Wunderground v.1.15,2013-09-17 06:00:00,
2013-09-17 02:05:00,38.9,34.8,30.30,North,355,0.0,0.0,85,0.00,,,0.00,Wunderground v.1.15,2013-09-17 06:05:00,
2013-09-17 02:11:00,38.8,35.0,30.30,North,357,0.0,0.0,86,0.00,,,0.00,Wunderground v.1.15,2013-09-17 06:11:00,
2013-09-17 02:17:00,38.6,34.8,30.31,North,355,0.0,0.0,86,0.00,,,0.00,Wunderground v.1.15,2013-09-17 06:17:00,
2013-09-17 02:23:00,38.5,34.7,30.31,North,357,0.0,0.0,86,0.00,,,0.00,Wunderground v.1.15,2013-09-17 06:23:00,
2013-09-17 02:30:00,38.3,34.5,30.31,North,357,0.0,0.0,86,0.00,,,0.00,Wunderground v.1.15,2013-09-17 06:30:00,
2013-09-17 02:35:00,38.2,34.7,30.31,North,357,0.0,0.0,87,0.00,,,0.00,Wunderground v.1.15,2013-09-17 06:35:00,
2013-09-17 02:41:00,38.0,34.5,30.31,North,357,0.0,0.0,87,0.00,,,0.00,Wunderground v.1.15,2013-09-17 06:41:00,
2013-09-17 02:47:00,37.9,34.4,30.31,North,357,0.0,0.0,87,0.00,,,0.00,Wunderground v.1.15,2013-09-17 06:47:00,
2013-09-17 02:53:00,37.8,34.3,30.31,North,357,0.0,0.0,87,0.00,,,0.00,Wunderground v.1.15,2013-09-17 06:53:00,
2013-09-17 02:58:00,37.8,34.6,30.31,North,357,0.0,0.0,88,0.00,,,0.00,Wunderground v.1.15,2013-09-17 06:58:00,
2013-09-17 03:05:00,37.6,34.4,30.31,North,357,0.0,0.0,88,0.00,,,0.00,Wunderground v.1.15,2013-09-17 07:05:00,
2013-09-17 03:10:00,37.5,34.3,30.31,North,355,0.0,0.0,88,0.00,,,0.00,Wunderground v.1.15,2013-09-17 07:10:00,
2013-09-17 03:15:00,37.3,34.1,30.32,North,357,0.0,0.0,88,0.00,,,0.00,Wunderground v.1.15,2013-09-17 07:15:00,
2013-09-17 03:22:00,37.2,34.0,30.32,North,357,0.0,0.0,88,0.00,,,0.00,Wunderground v.1.15,2013-09-17 07:22:00,
2013-09-17 03:27:00,37.2,34.0,30.32,North,355,0.0,0.0,88,0.00,,,0.00,Wunderground v.1.15,2013-09-17 07:27:00,
2013-09-17 03:32:00,37.0,33.8,30.32,North,357,0.0,0.0,88,0.00,,,0.00,Wunderground v.1.15,2013-09-17 07:32:00,
2013-09-17 03:38:00,36.9,34.0,30.32,North,357,0.0,0.0,89,0.00,,,0.00,Wunderground v.1.15,2013-09-17 07:38:00,
2013-09-17 03:45:00,36.9,34.0,30.32,North,355,0.0,0.0,89,0.00,,,0.00,Wunderground v.1.15,2013-09-17 07:45:00,
2013-09-17 03:50:00,36.9,34.0,30.32,North,357,0.0,0.0,89,0.00,,,0.00,Wunderground v.1.15,2013-09-17 07:50:00,
2013-09-17 03:56:00,36.8,33.9,30.32,North,357,0.0,0.0,89,0.00,,,0.00,Wunderground v.1.15,2013-09-17 07:56:00,
2013-09-17 04:02:00,36.8,33.9,30.33,North,357,0.0,0.0,89,0.00,,,0.00,Wunderground v.1.15,2013-09-17 08:02:00,
2013-09-17 04:07:00,36.6,33.7,30.33,North,357,0.0,0.0,89,0.00,,,0.00,Wunderground v.1.15,2013-09-17 08:07:00,
2013-09-17 04:13:00,36.6,33.7,30.33,North,357,0.0,0.0,89,0.00,,,0.00,Wunderground v.1.15,2013-09-17 08:13:00,
2013-09-17 04:20:00,36.5,33.6,30.33,North,357,0.0,0.0,89,0.00,,,0.00,Wunderground v.1.15,2013-09-17 08:20:00,
2013-09-17 04:25:00,36.5,33.8,30.33,North,357,0.0,0.0,90,0.00,,,0.00,Wunderground v.1.15,2013-09-17 08:25:00,
2013-09-17 04:30:00,36.5,33.8,30.33,North,357,0.0,0.0,90,0.00,,,0.00,Wunderground v.1.15,2013-09-17 08:30:00,
2013-09-17 04:37:00,36.3,33.6,30.33,North,357,0.0,0.0,90,0.00,,,0.00,Wunderground v.1.15,2013-09-17 08:37:00,
2013-09-17 04:42:00,36.3,33.6,30.33,North,355,0.0,0.0,90,0.00,,,0.00,Wunderground v.1.15,2013-09-17 08:42:00,
2013-09-17 04:48:00,36.2,33.5,30.33,North,357,0.0,0.0,90,0.00,,,0.00,Wunderground v.1.15,2013-09-17 08:48:00,
2013-09-17 04:53:00,36.2,33.5,30.33,North,355,0.0,0.0,90,0.00,,,0.00,Wunderground v.1.15,2013-09-17 08:53:00,
2013-09-17 04:59:00,36.2,33.5,30.33,North,357,0.0,0.0,90,0.00,,,0.00,Wunderground v.1.15,2013-09-17 08:59:00,
2013-09-17 05:05:00,36.0,33.6,30.34,North,357,0.0,0.0,91,0.00,,,0.00,Wunderground v.1.15,2013-09-17 09:05:00,
2013-09-17 05:10:00,36.0,33.6,30.34,North,355,0.0,0.0,91,0.00,,,0.00,Wunderground v.1.15,2013-09-17 09:10:00,
2013-09-17 05:16:00,36.0,33.9,30.34,North,357,0.0,0.0,92,0.00,,,0.00,Wunderground v.1.15,2013-09-17 09:16:00,
2013-09-17 05:22:00,36.0,33.9,30.34,North,357,0.0,0.0,92,0.00,,,0.00,Wunderground v.1.15,2013-09-17 09:22:00,
2013-09-17 05:28:00,36.0,33.9,30.34,North,357,0.0,0.0,92,0.00,,,0.00,Wunderground v.1.15,2013-09-17 09:28:00,
2013-09-17 05:33:00,35.9,33.8,30.35,North,357,0.0,0.0,92,0.00,,,0.00,Wunderground v.1.15,2013-09-17 09:33:00,
2013-09-17 05:38:00,35.9,33.8,30.35,North,357,0.0,0.0,92,0.00,,,0.00,Wunderground v.1.15,2013-09-17 09:38:00,
2013-09-17 05:44:00,35.9,33.8,30.35,North,357,0.0,0.0,92,0.00,,,0.00,Wunderground v.1.15,2013-09-17 09:44:00,
2013-09-17 05:50:00,35.9,33.8,30.35,North,357,0.0,0.0,92,0.00,,,0.00,Wunderground v.1.15,2013-09-17 09:50:00,
2013-09-17 05:55:00,35.9,33.8,30.35,North,357,0.0,0.0,92,0.00,,,0.00,Wunderground v.1.15,2013-09-17 09:55:00,
2013-09-17 06:00:00,35.9,33.8,30.36,North,357,0.0,0.0,92,0.00,,,0.00,Wunderground v.1.15,2013-09-17 10:00:00,
2013-09-17 06:05:00,35.9,33.8,30.36,North,357,0.0,0.0,92,0.00,,,0.00,Wunderground v.1.15,2013-09-17 10:05:00,
2013-09-17 06:12:00,35.9,33.8,30.36,North,355,0.0,0.0,92,0.00,,,0.00,Wunderground v.1.15,2013-09-17 10:12:00,
2013-09-17 06:17:00,35.9,33.8,30.36,North,357,0.0,0.0,92,0.00,,,0.00,Wunderground v.1.15,2013-09-17 10:17:00,
2013-09-17 06:22:00,35.8,33.7,30.36,North,357,0.0,0.0,92,0.00,,,0.00,Wunderground v.1.15,2013-09-17 10:22:00,
2013-09-17 06:28:00,35.6,33.5,30.36,North,357,0.0,0.0,92,0.00,,,0.00,Wunderground v.1.15,2013-09-17 10:28:00,
2013-09-17 06:35:00,35.6,33.5,30.37,North,357,0.0,0.0,92,0.00,,,0.00,Wunderground v.1.15,2013-09-17 10:35:00,
2013-09-17 06:40:00,35.5,33.4,30.37,North,355,0.0,0.0,92,0.00,,,0.00,Wunderground v.1.15,2013-09-17 10:40:00,
2013-09-17 06:46:00,35.5,33.4,30.38,North,357,0.0,0.0,92,0.00,,,0.00,Wunderground v.1.15,2013-09-17 10:46:00,
2013-09-17 06:52:00,35.5,33.4,30.38,North,357,0.0,0.0,92,0.00,,,0.00,Wunderground v.1.15,2013-09-17 10:52:00,
2013-09-17 06:57:00,35.3,33.2,30.38,North,357,0.0,0.0,92,0.00,,,0.00,Wunderground v.1.15,2013-09-17 10:57:00,
2013-09-17 07:03:00,35.3,33.2,30.38,North,357,0.0,0.0,92,0.00,,,0.00,Wunderground v.1.15,2013-09-17 11:03:00,
2013-09-17 07:08:00,35.3,33.2,30.38,North,357,0.0,0.0,92,0.00,,,0.00,Wunderground v.1.15,2013-09-17 11:08:00,
2013-09-17 07:13:00,35.2,33.1,30.38,North,355,0.0,0.0,92,0.00,,,0.00,Wunderground v.1.15,2013-09-17 11:13:00,
2013-09-17 07:20:00,35.2,33.4,30.40,North,357,0.0,0.0,93,0.00,,,0.00,Wunderground v.1.15,2013-09-17 11:20:00,
2013-09-17 07:25:00,35.2,33.4,30.40,North,357,0.0,0.0,93,0.00,,,0.00,Wunderground v.1.15,2013-09-17 11:25:00,
2013-09-17 07:31:00,35.2,33.4,30.40,North,357,0.0,0.0,93,0.00,,,0.00,Wunderground v.1.15,2013-09-17 11:31:00,
2013-09-17 07:37:00,35.3,33.7,30.40,North,357,0.0,0.0,94,0.00,,,0.00,Wunderground v.1.15,2013-09-17 11:37:00,
2013-09-17 07:43:00,35.3,33.7,30.40,North,357,0.0,0.0,94,0.00,,,0.00,Wunderground v.1.15,2013-09-17 11:43:00,
2013-09-17 07:48:00,35.5,33.9,30.40,North,355,0.0,0.0,94,0.00,,,0.00,Wunderground v.1.15,2013-09-17 11:48:00,
2013-09-17 07:55:00,35.8,34.5,30.40,North,357,0.0,0.0,95,0.00,,,0.00,Wunderground v.1.15,2013-09-17 11:55:00,
2013-09-17 08:00:00,35.9,34.6,30.41,North,355,0.0,0.0,95,0.00,,,0.00,Wunderground v.1.15,2013-09-17 12:00:00,
2013-09-17 08:05:00,36.0,35.0,30.41,North,357,0.0,0.0,96,0.00,,,0.00,Wunderground v.1.15,2013-09-17 12:05:00,
2013-09-17 08:12:00,36.5,35.5,30.41,North,357,0.0,0.0,96,0.00,,,0.00,Wunderground v.1.15,2013-09-17 12:12:00,
2013-09-17 08:17:00,36.9,36.1,30.41,North,357,0.0,0.0,97,0.00,,,0.00,Wunderground v.1.15,2013-09-17 12:17:00,
2013-09-17 08:22:00,37.2,36.4,30.41,North,357,0.0,0.0,97,0.00,,,0.00,Wunderground v.1.15,2013-09-17 12:22:00,
2013-09-17 08:28:00,37.5,36.7,30.41,North,357,0.0,0.0,97,0.00,,,0.00,Wunderground v.1.15,2013-09-17 12:28:00,
2013-09-17 08:35:00,37.9,37.1,30.41,North,357,0.0,0.0,97,0.00,,,0.00,Wunderground v.1.15,2013-09-17 12:35:00,
2013-09-17 08:40:00,38.3,37.8,30.41,North,357,0.0,0.0,98,0.00,,,0.00,Wunderground v.1.15,2013-09-17 12:40:00,
2013-09-17 08:47:00,38.9,38.4,30.42,North,357,0.0,0.0,98,0.00,,,0.00,Wunderground v.1.15,2013-09-17 12:47:00,
2013-09-17 08:52:00,39.3,39.0,30.42,North,357,0.0,0.0,99,0.00,,,0.00,Wunderground v.1.15,2013-09-17 12:52:00,
2013-09-17 08:57:00,39.8,39.5,30.42,North,355,0.0,0.0,99,0.00,,,0.00,Wunderground v.1.15,2013-09-17 12:57:00,
2013-09-17 09:03:00,40.1,39.8,30.42,North,355,0.0,0.0,99,0.00,,,0.00,Wunderground v.1.15,2013-09-17 13:03:00,
2013-09-17 09:10:00,40.6,40.3,30.42,North,357,0.0,0.0,99,0.00,,,0.00,Wunderground v.1.15,2013-09-17 13:10:00,
2013-09-17 09:15:00,41.1,40.8,30.43,North,357,0.0,0.0,99,0.00,,,0.00,Wunderground v.1.15,2013-09-17 13:15:00,
2013-09-17 09:22:00,41.5,41.2,30.43,North,357,0.0,0.0,99,0.00,,,0.00,Wunderground v.1.15,2013-09-17 13:22:00,
2013-09-17 09:27:00,41.9,41.6,30.43,SSW,207,0.0,0.0,99,0.00,,,0.00,Wunderground v.1.15,2013-09-17 13:27:00,
2013-09-17 09:33:00,42.2,41.9,30.43,SSW,207,0.0,0.0,99,0.00,,,0.00,Wunderground v.1.15,2013-09-17 13:33:00,
2013-09-17 09:40:00,42.8,42.3,30.43,SSW,207,0.0,0.0,98,0.00,,,0.00,Wunderground v.1.15,2013-09-17 13:40:00,
2013-09-17 09:45:00,43.3,42.8,30.43,SSW,207,0.0,0.0,98,0.00,,,0.00,Wunderground v.1.15,2013-09-17 13:45:00,
2013-09-17 09:51:00,43.9,42.6,30.43,SSW,207,0.0,2.0,95,0.00,,,0.00,Wunderground v.1.15,2013-09-17 13:51:00,
2013-09-17 09:57:00,44.5,42.9,30.43,WNW,286,0.0,1.0,94,0.00,,,0.00,Wunderground v.1.15,2013-09-17 13:57:00,
2013-09-17 10:02:00,44.9,43.3,30.43,WNW,286,0.0,1.0,94,0.00,,,0.00,Wunderground v.1.15,2013-09-17 14:02:00,
2013-09-17 10:08:00,45.4,40.8,30.43,NNW,330,0.0,0.0,84,0.00,,,0.00,Wunderground v.1.15,2013-09-17 14:08:00,
2013-09-17 10:15:00,46.2,41.0,30.42,NNE,22,0.0,1.0,82,0.00,,,0.00,Wunderground v.1.15,2013-09-17 14:15:00,
2013-09-17 10:20:00,46.7,40.5,30.42,NNE,22,0.0,1.0,79,0.00,,,0.00,Wunderground v.1.15,2013-09-17 14:20:00,
2013-09-17 10:26:00,47.4,40.2,30.42,WSW,251,0.0,2.0,76,0.00,,,0.00,Wunderground v.1.15,2013-09-17 14:26:00,
2013-09-17 10:32:00,48.8,40.2,30.42,WSW,251,0.0,2.0,72,0.00,,,0.00,Wunderground v.1.15,2013-09-17 14:32:00,
2013-09-17 10:37:00,50.8,39.1,30.42,WSW,251,1.0,1.0,64,0.00,,,0.00,Wunderground v.1.15,2013-09-17 14:37:00,
2013-09-17 10:42:00,51.7,41.5,30.42,WNW,300,0.0,2.0,68,0.00,,,0.00,Wunderground v.1.15,2013-09-17 14:42:00,
2013-09-17 10:48:00,52.6,42.3,30.42,NW,304,1.0,4.0,68,0.00,,,0.00,Wunderground v.1.15,2013-09-17 14:48:00,
2013-09-17 10:55:00,53.1,40.0,30.42,WNW,297,1.0,1.0,61,0.00,,,0.00,Wunderground v.1.15,2013-09-17 14:55:00,
2013-09-17 11:00:00,53.1,40.4,30.42,West,262,1.0,2.0,62,0.00,,,0.00,Wunderground v.1.15,2013-09-17 15:00:00,
2013-09-17 11:07:00,53.5,40.8,30.42,West,279,1.0,1.0,62,0.00,,,0.00,Wunderground v.1.15,2013-09-17 15:07:00,
2013-09-17 11:12:00,53.8,40.2,30.42,North,9,1.0,4.0,60,0.00,,,0.00,Wunderground v.1.15,2013-09-17 15:12:00,
2013-09-17 11:17:00,54.1,40.5,30.42,NNE,25,1.0,2.0,60,0.00,,,0.00,Wunderground v.1.15,2013-09-17 15:17:00,
2013-09-17 11:23:00,54.7,39.8,30.42,NW,318,1.0,2.0,57,0.00,,,0.00,Wunderground v.1.15,2013-09-17 15:23:00,
2013-09-17 11:30:00,55.0,39.1,30.41,NNE,16,1.0,2.0,55,0.00,,,0.00,Wunderground v.1.15,2013-09-17 15:30:00,
2013-09-17 11:35:00,54.8,42.0,30.41,NE,49,0.0,1.0,62,0.00,,,0.00,Wunderground v.1.15,2013-09-17 15:35:00,
2013-09-17 11:40:00,54.8,40.3,30.41,NNE,22,0.0,2.0,58,0.00,,,0.00,Wunderground v.1.15,2013-09-17 15:40:00,
2013-09-17 11:45:00,55.3,40.8,30.41,NNE,26,1.0,2.0,58,0.00,,,0.00,Wunderground v.1.15,2013-09-17 15:45:00,
2013-09-17 11:52:00,56.3,41.3,30.41,NNE,26,1.0,2.0,57,0.00,,,0.00,Wunderground v.1.15,2013-09-17 15:52:00,
2013-09-17 11:57:00,56.7,37.2,30.41,NE,35,1.0,1.0,48,0.00,,,0.00,Wunderground v.1.15,2013-09-17 15:57:00,
2013-09-17 12:02:00,57.3,37.8,30.41,NNE,28,1.0,1.0,48,0.00,,,0.00,Wunderground v.1.15,2013-09-17 16:02:00,
2013-09-17 12:08:00,58.9,42.3,30.41,North,351,0.0,2.0,54,0.00,,,0.00,Wunderground v.1.15,2013-09-17 16:08:00,
2013-09-17 12:15:00,59.2,42.6,30.40,North,355,1.0,1.0,54,0.00,,,0.00,Wunderground v.1.15,2013-09-17 16:15:00,
2013-09-17 12:20:00,59.2,44.9,30.40,NW,324,0.0,1.0,59,0.00,,,0.00,Wunderground v.1.15,2013-09-17 16:20:00,
2013-09-17 12:25:00,58.7,44.4,30.40,NNE,21,0.0,0.0,59,0.00,,,0.00,Wunderground v.1.15,2013-09-17 16:25:00,
2013-09-17 12:32:00,58.0,38.9,30.40,SE,136,0.0,0.0,49,0.00,,,0.00,Wunderground v.1.15,2013-09-17 16:32:00,
2013-09-17 12:37:00,57.8,38.8,30.40,SE,136,0.0,0.0,49,0.00,,,0.00,Wunderground v.1.15,2013-09-17 16:37:00,
2013-09-17 12:42:00,58.9,42.8,30.40,NNW,335,1.0,2.0,55,0.00,,,0.00,Wunderground v.1.15,2013-09-17 16:42:00,
2013-09-17 12:48:00,58.6,42.5,30.40,NNW,335,1.0,1.0,55,0.00,,,0.00,Wunderground v.1.15,2013-09-17 16:48:00,
2013-09-17 12:55:00,58.9,40.3,30.40,WNW,293,0.0,0.0,50,0.00,,,0.00,Wunderground v.1.15,2013-09-17 16:55:00,
2013-09-17 13:00:00,58.9,40.8,30.39,North,357,0.0,0.0,51,0.00,,,0.00,Wunderground v.1.15,2013-09-17 17:00:00,
2013-09-17 13:07:00,58.7,39.0,30.39,East,83,0.0,0.0,48,0.00,,,0.00,Wunderground v.1.15,2013-09-17 17:07:00,
2013-09-17 13:12:00,58.3,39.7,30.39,ESE,105,0.0,1.0,50,0.00,,,0.00,Wunderground v.1.15,2013-09-17 17:12:00,
2013-09-17 13:17:00,58.9,40.3,30.38,ESE,105,0.0,0.0,50,0.00,,,0.00,Wunderground v.1.15,2013-09-17 17:17:00,
2013-09-17 13:23:00,59.8,42.1,30.38,WSW,248,0.0,1.0,52,0.00,,,0.00,Wunderground v.1.15,2013-09-17 17:23:00,
2013-09-17 13:30:00,59.6,37.1,30.38,SW,224,0.0,1.0,43,0.00,,,0.00,Wunderground v.1.15,2013-09-17 17:30:00,
2013-09-17 13:35:00,61.3,41.4,30.38,NE,54,0.0,0.0,48,0.00,,,0.00,Wunderground v.1.15,2013-09-17 17:35:00,
2013-09-17 13:40:00,60.9,43.1,30.38,NE,52,0.0,0.0,52,0.00,,,0.00,Wunderground v.1.15,2013-09-17 17:40:00,
2013-09-17 13:46:00,61.3,42.5,30.37,East,94,0.0,1.0,50,0.00,,,0.00,Wunderground v.1.15,2013-09-17 17:46:00,
2013-09-17 13:53:00,61.6,42.8,30.37,North,358,0.0,0.0,50,0.00,,,0.00,Wunderground v.1.15,2013-09-17 17:53:00,
2013-09-17 13:58:00,60.7,38.6,30.37,North,358,0.0,0.0,44,0.00,,,0.00,Wunderground v.1.15,2013-09-17 17:58:00,
2013-09-17 14:05:00,60.5,38.5,30.36,South,179,1.0,1.0,44,0.00,,,0.00,Wunderground v.1.15,2013-09-17 18:05:00,
2013-09-17 14:10:00,60.5,41.8,30.36,South,179,1.0,1.0,50,0.00,,,0.00,Wunderground v.1.15,2013-09-17 18:10:00,
2013-09-17 14:15:00,60.5,41.8,30.36,South,179,0.0,0.0,50,0.00,,,0.00,Wunderground v.1.15,2013-09-17 18:15:00,
2013-09-17 14:21:00,60.2,37.6,30.36,South,179,0.0,1.0,43,0.00,,,0.00,Wunderground v.1.15,2013-09-17 18:21:00,
2013-09-17 14:27:00,59.9,37.3,30.36,SE,146,0.0,0.0,43,0.00,,,0.00,Wunderground v.1.15,2013-09-17 18:27:00,
2013-09-17 14:33:00,60.1,37.5,30.36,SE,146,0.0,0.0,43,0.00,,,0.00,Wunderground v.1.15,2013-09-17 18:33:00,
2013-09-17 14:40:00,59.9,41.7,30.36,SE,146,0.0,0.0,51,0.00,,,0.00,Wunderground v.1.15,2013-09-17 18:40:00,
2013-09-17 14:45:00,59.9,41.7,30.35,ENE,74,0.0,0.0,51,0.00,,,0.00,Wunderground v.1.15,2013-09-17 18:45:00,
2013-09-17 14:52:00,60.1,39.2,30.35,NNE,18,0.0,0.0,46,0.00,,,0.00,Wunderground v.1.15,2013-09-17 18:52:00,
2013-09-17 14:59:00,60.1,42.9,30.35,NNE,18,0.0,0.0,53,0.00,,,0.00,Wunderground v.1.15,2013-09-17 18:59:00,
2013-09-17 15:05:00,60.1,43.9,30.35,NNE,18,0.0,0.0,55,0.00,,,0.00,Wunderground v.1.15,2013-09-17 19:05:00,
2013-09-17 15:10:00,59.9,43.7,30.35,NW,316,0.0,1.0,55,0.00,,,0.00,Wunderground v.1.15,2013-09-17 19:10:00,
2013-09-17 15:17:00,60.2,41.5,30.34,NNW,333,0.0,1.0,50,0.00,,,0.00,Wunderground v.1.15,2013-09-17 19:17:00,
2013-09-17 15:22:00,60.1,43.4,30.34,ESE,122,0.0,1.0,54,0.00,,,0.00,Wunderground v.1.15,2013-09-17 19:22:00,
2013-09-17 15:28:00,60.4,42.2,30.34,ESE,121,0.0,0.0,51,0.00,,,0.00,Wunderground v.1.15,2013-09-17 19:28:00,
2013-09-17 15:35:00,60.2,42.0,30.33,ESE,111,0.0,2.0,51,0.00,,,0.00,Wunderground v.1.15,2013-09-17 19:35:00,
2013-09-17 15:40:00,60.2,43.5,30.33,ESE,111,0.0,2.0,54,0.00,,,0.00,Wunderground v.1.15,2013-09-17 19:40:00,
2013-09-17 15:46:00,60.2,42.5,30.33,ESE,112,0.0,1.0,52,0.00,,,0.00,Wunderground v.1.15,2013-09-17 19:46:00,
2013-09-17 15:52:00,60.1,42.4,30.33,ESE,111,0.0,1.0,52,0.00,,,0.00,Wunderground v.1.15,2013-09-17 19:52:00,
2013-09-17 15:58:00,59.9,46.0,30.33,ESE,111,0.0,0.0,60,0.00,,,0.00,Wunderground v.1.15,2013-09-17 19:58:00,
2013-09-17 16:05:00,59.8,46.3,30.33,ESE,111,0.0,0.0,61,0.00,,,0.00,Wunderground v.1.15,2013-09-17 20:05:00,
2013-09-17 16:10:00,59.6,46.6,30.33,ESE,111,0.0,0.0,62,0.00,,,0.00,Wunderground v.1.15,2013-09-17 20:10:00,
2013-09-17 16:16:00,59.9,47.3,30.33,ESE,111,0.0,0.0,63,0.00,,,0.00,Wunderground v.1.15,2013-09-17 20:16:00,
2013-09-17 16:22:00,59.6,47.0,30.33,ESE,111,0.0,0.0,63,0.00,,,0.00,Wunderground v.1.15,2013-09-17 20:22:00,
2013-09-17 16:27:00,59.5,46.9,30.33,ESE,111,0.0,0.0,63,0.00,,,0.00,Wunderground v.1.15,2013-09-17 20:27:00,
2013-09-17 16:32:00,59.3,48.3,30.32,ESE,111,0.0,0.0,67,0.00,,,0.00,Wunderground v.1.15,2013-09-17 20:32:00,
2013-09-17 16:38:00,59.3,48.3,30.32,ESE,111,0.0,0.0,67,0.00,,,0.00,Wunderground v.1.15,2013-09-17 20:38:00,
2013-09-17 16:45:00,59.2,48.6,30.32,ESE,111,0.0,0.0,68,0.00,,,0.00,Wunderground v.1.15,2013-09-17 20:45:00,
2013-09-17 16:50:00,59.0,47.7,30.32,ESE,111,0.0,0.0,66,0.00,,,0.00,Wunderground v.1.15,2013-09-17 20:50:00,
2013-09-17 16:55:00,58.9,48.0,30.32,ESE,111,0.0,0.0,67,0.00,,,0.00,Wunderground v.1.15,2013-09-17 20:55:00,
2013-09-17 17:01:00,58.9,48.0,30.32,ESE,111,0.0,0.0,67,0.00,,,0.00,Wunderground v.1.15,2013-09-17 21:01:00,
2013-09-17 17:07:00,58.6,47.7,30.32,ESE,111,0.0,0.0,67,0.00,,,0.00,Wunderground v.1.15,2013-09-17 21:07:00,
2013-09-17 17:13:00,58.3,48.9,30.32,ESE,111,0.0,0.0,71,0.00,,,0.00,Wunderground v.1.15,2013-09-17 21:13:00,
2013-09-17 17:20:00,58.1,46.4,30.32,ESE,111,0.0,0.0,65,0.00,,,0.00,Wunderground v.1.15,2013-09-17 21:20:00,
2013-09-17 17:25:00,57.5,48.9,30.32,ESE,111,0.0,0.0,73,0.00,,,0.00,Wunderground v.1.15,2013-09-17 21:25:00,
2013-09-17 17:32:00,57.3,48.7,30.32,ESE,111,0.0,0.0,73,0.00,,,0.00,Wunderground v.1.15,2013-09-17 21:32:00,
2013-09-17 17:37:00,56.9,47.2,30.32,ESE,111,0.0,0.0,70,0.00,,,0.00,Wunderground v.1.15,2013-09-17 21:37:00,
2013-09-17 17:43:00,56.6,47.7,30.32,ESE,111,0.0,0.0,72,0.00,,,0.00,Wunderground v.1.15,2013-09-17 21:43:00,
2013-09-17 17:50:00,56.2,48.7,30.32,ESE,111,0.0,0.0,76,0.00,,,0.00,Wunderground v.1.15,2013-09-17 21:50:00,
2013-09-17 17:55:00,56.2,48.0,30.32,ESE,111,0.0,0.0,74,0.00,,,0.00,Wunderground v.1.15,2013-09-17 21:55:00,
2013-09-17 18:00:00,55.9,48.4,30.31,ESE,111,0.0,0.0,76,0.00,,,0.00,Wunderground v.1.15,2013-09-17 22:00:00,
2013-09-17 18:07:00,55.4,48.0,30.31,ESE,111,0.0,0.0,76,0.00,,,0.00,Wunderground v.1.15,2013-09-17 22:07:00,
2013-09-17 18:13:00,55.1,49.0,30.31,ESE,111,0.0,0.0,80,0.00,,,0.00,Wunderground v.1.15,2013-09-17 22:13:00,
2013-09-17 18:19:00,54.7,49.0,30.31,ESE,111,0.0,0.0,81,0.00,,,0.00,Wunderground v.1.15,2013-09-17 22:19:00,
2013-09-17 18:25:00,54.4,48.7,30.31,ESE,111,0.0,0.0,81,0.00,,,0.00,Wunderground v.1.15,2013-09-17 22:25:00,
2013-09-17 18:32:00,53.9,48.5,30.31,ESE,111,0.0,0.0,82,0.00,,,0.00,Wunderground v.1.15,2013-09-17 22:32:00,
2013-09-17 18:37:00,53.5,48.5,30.31,ESE,111,0.0,0.0,83,0.00,,,0.00,Wunderground v.1.15,2013-09-17 22:37:00,
2013-09-17 18:42:00,53.3,49.2,30.31,ESE,111,0.0,0.0,86,0.00,,,0.00,Wunderground v.1.15,2013-09-17 22:42:00,
2013-09-17 18:48:00,53.1,49.0,30.31,ESE,111,0.0,0.0,86,0.00,,,0.00,Wunderground v.1.15,2013-09-17 22:48:00,
2013-09-17 18:55:00,52.5,49.0,30.31,ESE,111,0.0,0.0,88,0.00,,,0.00,Wunderground v.1.15,2013-09-17 22:55:00,
2013-09-17 19:00:00,52.2,48.8,30.31,ESE,111,0.0,0.0,88,0.00,,,0.00,Wunderground v.1.15,2013-09-17 23:00:00,
2013-09-17 19:05:00,51.7,48.6,30.31,ESE,111,0.0,0.0,89,0.00,,,0.00,Wunderground v.1.15,2013-09-17 23:05:00,
2013-09-17 19:12:00,51.6,48.5,30.31,ESE,111,0.0,0.0,89,0.00,,,0.00,Wunderground v.1.15,2013-09-17 23:12:00,
2013-09-17 19:17:00,51.3,48.2,30.31,ESE,111,0.0,0.0,89,0.00,,,0.00,Wunderground v.1.15,2013-09-17 23:17:00,
2013-09-17 19:22:00,50.8,47.7,30.31,ESE,111,0.0,0.0,89,0.00,,,0.00,Wunderground v.1.15,2013-09-17 23:22:00,
2013-09-17 19:28:00,50.7,47.6,30.31,ESE,111,0.0,0.0,89,0.00,,,0.00,Wunderground v.1.15,2013-09-17 23:28:00,
2013-09-17 19:35:00,50.4,47.6,30.31,ESE,111,0.0,0.0,90,0.00,,,0.00,Wunderground v.1.15,2013-09-17 23:35:00,
2013-09-17 19:40:00,50.1,47.3,30.31,ESE,112,0.0,0.0,90,0.00,,,0.00,Wunderground v.1.15,2013-09-17 23:40:00,
2013-09-17 19:45:00,49.8,47.0,30.32,ESE,112,0.0,0.0,90,0.00,,,0.00,Wunderground v.1.15,2013-09-17 23:45:00,
2013-09-17 19:52:00,49.9,47.4,30.32,ESE,112,0.0,0.0,91,0.00,,,0.00,Wunderground v.1.15,2013-09-17 23:52:00,
2013-09-17 19:57:00,49.8,47.3,30.32,ESE,112,0.0,0.0,91,0.00,,,0.00,Wunderground v.1.15,2013-09-17 23:57:00,
2013-09-17 20:02:00,49.4,46.9,30.32,ESE,112,0.0,0.0,91,0.00,,,0.00,Wunderground v.1.15,2013-09-18 00:02:00,
2013-09-17 20:08:00,48.9,46.7,30.32,ESE,112,0.0,0.0,92,0.00,,,0.00,Wunderground v.1.15,2013-09-18 00:08:00,
2013-09-17 20:15:00,48.3,46.1,30.32,ESE,112,0.0,0.0,92,0.00,,,0.00,Wunderground v.1.15,2013-09-18 00:15:00,
2013-09-17 20:20:00,48.3,46.4,30.32,ESE,112,0.0,0.0,93,0.00,,,0.00,Wunderground v.1.15,2013-09-18 00:20:00,
2013-09-17 20:27:00,48.3,46.4,30.32,ESE,111,0.0,0.0,93,0.00,,,0.00,Wunderground v.1.15,2013-09-18 00:27:00,
2013-09-17 20:32:00,48.5,46.6,30.33,ESE,111,0.0,0.0,93,0.00,,,0.00,Wunderground v.1.15,2013-09-18 00:32:00,
2013-09-17 20:37:00,48.5,46.6,30.33,ESE,112,0.0,0.0,93,0.00,,,0.00,Wunderground v.1.15,2013-09-18 00:37:00,
2013-09-17 20:42:00,48.2,46.3,30.33,ESE,112,0.0,0.0,93,0.00,,,0.00,Wunderground v.1.15,2013-09-18 00:42:00,
2013-09-17 20:47:00,48.0,46.1,30.33,ESE,112,0.0,0.0,93,0.00,,,0.00,Wunderground v.1.15,2013-09-18 00:47:00,
2013-09-17 20:53:00,47.7,45.8,30.33,ESE,112,0.0,0.0,93,0.00,,,0.00,Wunderground v.1.15,2013-09-18 00:53:00,
2013-09-17 20:59:00,47.3,45.4,30.33,ESE,112,0.0,0.0,93,0.00,,,0.00,Wunderground v.1.15,2013-09-18 00:59:00,
2013-09-17 21:04:00,47.0,45.6,30.33,ESE,112,0.0,0.0,95,0.00,,,0.00,Wunderground v.1.15,2013-09-18 01:04:00,
2013-09-17 21:10:00,47.0,45.6,30.33,ESE,112,0.0,0.0,95,0.00,,,0.00,Wunderground v.1.15,2013-09-18 01:10:00,
2013-09-17 21:15:00,46.8,45.4,30.32,ESE,112,0.0,0.0,95,0.00,,,0.00,Wunderground v.1.15,2013-09-18 01:15:00,
2013-09-17 21:21:00,46.4,45.0,30.32,ESE,112,0.0,0.0,95,0.00,,,0.00,Wunderground v.1.15,2013-09-18 01:21:00,
2013-09-17 21:27:00,46.2,44.8,30.32,ESE,112,0.0,0.0,95,0.00,,,0.00,Wunderground v.1.15,2013-09-18 01:27:00,
2013-09-17 21:32:00,46.2,44.8,30.33,ESE,112,0.0,0.0,95,0.00,,,0.00,Wunderground v.1.15,2013-09-18 01:32:00,
2013-09-17 21:38:00,46.2,45.1,30.33,ESE,112,0.0,0.0,96,0.00,,,0.00,Wunderground v.1.15,2013-09-18 01:38:00,
2013-09-17 21:45:00,45.8,44.7,30.32,ESE,111,0.0,0.0,96,0.00,,,0.00,Wunderground v.1.15,2013-09-18 01:45:00,
2013-09-17 21:50:00,45.7,44.6,30.32,ESE,112,0.0,0.0,96,0.00,,,0.00,Wunderground v.1.15,2013-09-18 01:50:00,
2013-09-17 21:55:00,45.5,44.4,30.32,ESE,112,0.0,0.0,96,0.00,,,0.00,Wunderground v.1.15,2013-09-18 01:55:00,
2013-09-17 22:01:00,45.5,44.7,30.32,ESE,112,0.0,0.0,97,0.00,,,0.00,Wunderground v.1.15,2013-09-18 02:01:00,
2013-09-17 22:07:00,45.7,44.9,30.32,ESE,112,0.0,0.0,97,0.00,,,0.00,Wunderground v.1.15,2013-09-18 02:07:00,
2013-09-17 22:13:00,45.5,44.7,30.32,ESE,112,0.0,0.0,97,0.00,,,0.00,Wunderground v.1.15,2013-09-18 02:13:00,
2013-09-17 22:19:00,45.4,44.6,30.32,ESE,112,0.0,0.0,97,0.00,,,0.00,Wunderground v.1.15,2013-09-18 02:19:00,
2013-09-17 22:25:00,45.1,44.3,30.32,ESE,112,0.0,0.0,97,0.00,,,0.00,Wunderground v.1.15,2013-09-18 02:25:00,
2013-09-17 22:31:00,44.8,44.0,30.32,ESE,112,0.0,0.0,97,0.00,,,0.00,Wunderground v.1.15,2013-09-18 02:31:00,
2013-09-17 22:37:00,44.8,44.0,30.32,ESE,112,0.0,0.0,97,0.00,,,0.00,Wunderground v.1.15,2013-09-18 02:37:00,
2013-09-17 22:43:00,44.9,44.1,30.32,ESE,112,0.0,0.0,97,0.00,,,0.00,Wunderground v.1.15,2013-09-18 02:43:00,
2013-09-17 22:50:00,44.6,43.8,30.32,ESE,112,0.0,0.0,97,0.00,,,0.00,Wunderground v.1.15,2013-09-18 02:50:00,
2013-09-17 22:55:00,44.6,43.8,30.32,ESE,112,0.0,0.0,97,0.00,,,0.00,Wunderground v.1.15,2013-09-18 02:55:00,
2013-09-17 23:00:00,44.5,43.7,30.32,ESE,112,0.0,0.0,97,0.00,,,0.00,Wunderground v.1.15,2013-09-18 03:00:00,
2013-09-17 23:06:00,44.2,43.4,30.32,ESE,112,0.0,0.0,97,0.00,,,0.00,Wunderground v.1.15,2013-09-18 03:06:00,
2013-09-17 23:12:00,44.2,43.4,30.32,ESE,112,0.0,0.0,97,0.00,,,0.00,Wunderground v.1.15,2013-09-18 03:12:00,
2013-09-17 23:18:00,43.9,43.1,30.32,ESE,112,0.0,0.0,97,0.00,,,0.00,Wunderground v.1.15,2013-09-18 03:18:00,
2013-09-17 23:24:00,43.8,43.0,30.32,ESE,112,0.0,0.0,97,0.00,,,0.00,Wunderground v.1.15,2013-09-18 03:24:00,
2013-09-17 23:30:00,43.8,43.3,30.32,ESE,112,0.0,0.0,98,0.00,,,0.00,Wunderground v.1.15,2013-09-18 03:30:00,
2013-09-17 23:35:00,43.5,43.0,30.32,ESE,112,0.0,0.0,98,0.00,,,0.00,Wunderground v.1.15,2013-09-18 03:35:00,
2013-09-17 23:41:00,43.5,43.0,30.32,ESE,112,0.0,0.0,98,0.00,,,0.00,Wunderground v.1.15,2013-09-18 03:41:00,
2013-09-17 23:47:00,43.2,42.7,30.32,ESE,112,0.0,0.0,98,0.00,,,0.00,Wunderground v.1.15,2013-09-18 03:47:00,
2013-09-17 23:52:00,43.1,42.6,30.32,ESE,112,0.0,0.0,98,0.00,,,0.00,Wunderground v.1.15,2013-09-18 03:52:00,
2013-09-17 23:58:00,42.9,42.4,30.32,ESE,112,0.0,0.0,98,0.00,,,0.00,Wunderground v.1.15,2013-09-18 03:58:00,